Showing default

FLOCK 4BE 19, 60563

Orbit data source: Space-Track

FLOCK 4BE 19, 60563 is a payload satellite owned by Planet (US) in SSO that was launched on Fri, 16 Aug 2024 UTC via an FALCON 9 launch vehicle from the Air Force Western Test Range (AFWTR). Payload-class satellites include a variety of spacecraft equipped with specific instruments for various scientific and technological missions. These include communications satellites like Starlink; space stations such as the ISS; scientific satellites like the Hubble; Earth observation satellites from companies like Planet Labs, Umbra, and HawkEye 360; GPS; miniature CubeSats for education and research; and military/defense satellites.

Loading next visibility...
Identifier
60563, 2024-149CZ
Orbit
SSO
Country
Flag of USUS
Related business
Manufacturer
Planet
Mission
Operational Commercial Imaging
Bus & Motor
CUBESAT 3U, Unknown motor
Mass
5.7 kg wet, 5.7 kg dry
Launch date (UTC)
2024-08-16 (2 years ago)
Launch vehicle
FALCON 9
Launch site
Air Force Western Test Range (AFWTR)
Object type
Payload
Rocket body
Debris
Shape & HBR
Box + 2 Pan, 1.0 m
Radar Cross Section
0.072 m², Medium (>0.1 m² and < 1m²)

Expand to show TLE details & history
Last TLE update: 9 hours ago

TLE from 9 hours ago
0 FLOCK 4BE 19
1 60563U 24149CZ  26129.74805514  .00012814  00000-0  29404-3 0  9992
2 60563  97.3736 214.6863 0005243  80.5505 279.6335 15.42842818 96490
Epoch: 2026-05-09T17:57Z
TLE epoch observation values (Epoch: 2026-05-09T17:57:11.964Z)
Latitude
-0°
Longitude
77.82541°
Altitude
440.25 km
Speed
7.648 km/s
True Right ascension
14h 18m 44s
True Declination
0° 00' 00"
Sunlit
Object was in full shadow at epoch
Visualization orbit readout
Latitude
Unknown
Longitude
Unknown
Altitude
Unknown
Speed
Unknown
Apparent Right ascension
Unknown
Apparent Declination
Unknown
Sunlit
N/A
Visualization observer readout
Local Sidereal Time
11:31:23
Azimuth
Unknown
Elevation
Unknown
Doppler factor
Unknown
Orbital elements
Apogee altitude
438.23 km
Perigee altitude
431.086 km
Semi-major axis
6,812.795 km
Eccentricity
0.00052
Inclination
97.3736°
RAAN
214.6863°
Arg. of periapsis
80.5505°
True anomaly
279.57426°
Mean anomaly
279.6335°
Eccentric anomaly
279.60388°
Mean motion
3.85971 °/min
Orbital period
93.27 mins
BSTAR
0.00029404
Loading maneuver chart data...
Computing Atmospheric mass density...
Loading historical data...
Loading historical data...
Loading historical data...
Loading historical data...
Loading historical data...
Loading historical data...
Loading historical data...

Documentation

Showing up to 5 results
|